Temp
22 22 22 21 24 25 25 26 25 27 26 23 22 23 24 24 24 25 21 21 20 19 19 19 19 19 19 19 19 18 18 18 18 18 18 18 18 18 17 17 17 17 17 17 17 17 17 17 17
22 22 22 21 25 27 26 25 26 25 24 22 23 23 24 25 22 23 21 21 20 20 19 19 19 19 19 19 19 18 18 18 18 18 19 18 18 18 17 17 17 17 17 18 17 17 17 17 17
22 22 22 22 22 26 26 25 25 24 22 24 24 24 23 23 21 22 22 22 20 20 19 19 19 19 18 19 19 18 18 18 18 18 18 18 18 18 18 17 17 17 17 17 17 17 17 17 17
22 22 20 24 24 23 25 25 24 25 25 25 24 25 23 22 21 22 22 22 20 20 19 19 19 19 18 19 19 19 18 18 18 18 18 19 18 18 18 18 18 18 18 18 17 17 17 17 17
22 22 22 22 22 22 23 23 23 24 24 24 24 24 22 22 22 23 22 22 20 20 19 19 19 19 18 18 19 19 18 18 18 18 18 19 18 18 18 18 18 18 18 18 18 18 17 17 17
21 20 23 23 22 22 22 22 23 24 24 24 25 23 21 21 22 22 22 21 20 20 19 19 18 18 18 18 18 19 18 18 18 18 18 18 18 18 18 18 18 18 18 18 18 18 17 17 17
21 21 21 20 22 23 22 21 23 23 24 25 24 24 21 21 23 22 22 21 20 20 19 19 18 18 18 18 18 19 19 18 18 18 18 18 18 18 18 18 18 18 18 18 17 17 17 17 17
20 20 19 19 21 22 20 20 22 22 24 23 23 25 24 23 23 23 21 21 20 20 19 19 18 18 18 18 18 19 19 18 18 18 18 18 18 18 18 18 18 18 18 18 17 17 17 17 16
19 21 20 20 20 20 19 20 21 22 22 23 23 23 24 24 23 23 21 20 20 19 19 19 18 18 18 18 18 18 18 18 18 18 18 18 18 18 18 18 18 18 18 17 17 17 17 17 17
18 19 19 18 18 18 18 18 19 21 22 24 23 23 23 22 23 23 23 20 20 20 19 19 18 18 18 18 18 18 18 18 18 18 18 18 18 18 18 18 18 18 18 17 17 17 17 16 17
16 18 16 16 17 16 18 19 18 20 22 22 22 22 21 22 22 21 22 23 22 20 20 19 19 18 18 17 18 18 18 18 18 18 18 18 18 18 18 18 17 17 17 17 17 17 17 17 17
17 14 14 15 15 16 17 18 19 19 19 18 19 21 22 23 22 21 21 22 23 21 21 20 19 18 18 18 18 18 18 18 19 18 18 18 18 18 18 18 18 18 17 17 17 17 17 17 17
15 14 14 14 14 14 15 17 18 16 15 17 19 19 18 18 19 19 20 20 21 22 21 20 20 19 18 18 18 18 18 19 19 19 19 18 18 19 19 18 18 18 18 17 17 17 17 17 17
13 13 14 13 14 13 15 17 17 15 15 17 16 17 18 18 18 17 19 21 21 21 21 21 20 19 19 18 18 18 18 19 19 19 19 19 19 19 19 19 19 18 18 18 18 17 17 17 17
12 15 14 13 13 13 14 18 16 14 15 15 16 16 17 18 18 17 18 19 21 21 21 21 20 19 19 19 18 18 18 19 19 19 19 19 19 19 19 19 19 19 18 18 18 17 17 17 17
12 12 14 13 13 13 15 18 15 13 14 15 16 16 16 19 20 20 19 18 19 19 21 22 21 20 19 19 19 19 19 19 19 19 20 19 19 19 19 19 19 19 19 18 18 18 18 18 18
11 13 11 12 12 13 13 13 13 13 14 15 15 16 16 18 20 21 20 19 19 19 19 20 21 22 21 20 20 19 20 20 19 19 20 20 20 19 19 19 19 19 19 19 19 18 18 18 18
11 11 11 11 13 12 12 13 14 14 14 15 15 15 16 17 19 20 21 20 20 20 20 20 20 20 21 21 21 20 20 20 20 20 20 19 20 20 20 19 19 19 19 19 19 19 19 18 18
10 10 10 11 12 12 12 13 14 15 15 15 15 15 15 15 16 17 20 20 19 19 19 20 20 20 20 20 21 21 21 20 20 20 20 19 19 19 20 20 20 19 19 19 19 19 19 18 18
10 10 11 11 12 12 12 13 15 14 14 13 13 13 13 13 13 14 17 18 18 17 17 19 20 20 20 20 21 20 21 21 21 20 20 20 20 19 19 20 20 20 19 19 19 19 19 19 18
10 11 10 10 11 11 13 13 13 14 13 13 13 12 12 12 12 12 12 12 15 17 17 15 18 19 20 20 20 20 19 20 20 21 21 21 20 20 20 20 20 20 20 20 20 19 19 19 18
11 10 10 10 11 12 11 11 11 12 13 12 12 11 11 11 11 11 10 10 10 12 15 16 15 16 18 19 18 19 21 21 22 22 22 22 21 20 20 20 20 20 20 20 20 20 19 18 18
11 10 10 10 11 11 11 12 11 12 11 11 11 11 11 11 10 10 10 10 9 11 11 13 16 16 15 16 18 18 19 21 21 21 21 22 22 21 20 20 20 20 20 20 20 20 20 19 19
10 10 10 9 10 12 10 12 10 9 10 11 11 10 10 10 10 9 9 9 11 13 12 10 14 16 15 15 16 17 19 19 19 20 21 22 22 22 22 21 20 20 20 21 21 20 20 20 19
10 10 11 12 12 11 11 10 8 10 11 11 11 10 9 9 9 9 9 9 10 12 12 11 11 13 15 15 14 16 17 17 18 18 18 17 18 20 22 22 22 21 20 20 19 19 20 20 19
9 9 10 10 10 10 10 10 10 11 11 10 9 9 9 8 8 8 8 8 9 9 10 11 11 11 11 13 14 14 15 15 16 16 16 16 17 17 18 19 19 20 20 19 19 18 18 18 18
9 9 9 8 8 8 10 10 10 11 11 10 9 9 8 8 7 7 7 7 7 9 8 10 11 11 11 10 13 14 14 14 15 15 16 16 15 16 16 16 16 17 17 18 17 17 18 18 17
9 9 9 9 9 9 10 8 9 9 9 10 9 8 8 8 7 7 7 6 8 7 9 9 10 10 10 10 9 10 13 14 14 15 15 15 15 15 15 16 16 16 17 17 17 17 17 17 17
8 8 8 8 8 8 8 10 9 8 8 9 8 8 7 7 7 6 6 6 7 7 8 8 8 10 10 10 10 9 8 8 12 14 14 14 14 15 15 15 15 15 15 16 15 15 15 15 16
7 7 7 9 7 7 7 9 9 8 8 8 8 7 7 7 6 6 6 6 6 6 7 8 7 7 9 9 10 11 10 9 8 9 11 12 13 13 14 14 14 13 14 15 15 14 14 14 14
Height
1520 1518 1517 1516 1519 1514 1521 1520 1514 1508 1508 1509 1511 1514 1514 1514 1514 1520 1515 1518 1524 1529 1534 1538 1542 1544 1547 1550 1551 1553 1555 1557 1559 1560 1562 1565 1567 1568 1570 1572 1574 1575 1576 1577 1578 1579 1580 1581 1583
1519 1518 1517 1516 1518 1517 1524 1518 1513 1510 1509 1510 1511 1512 1513 1512 1513 1513 1516 1519 1525 1529 1533 1538 1542 1545 1548 1550 1552 1554 1556 1558 1560 1562 1563 1565 1567 1569 1571 1573 1575 1577 1578 1579 1580 1582 1583 1584 1585
1519 1518 1519 1518 1524 1520 1524 1518 1515 1512 1512 1511 1511 1511 1512 1514 1513 1514 1516 1520 1524 1528 1532 1538 1542 1545 1548 1551 1553 1555 1557 1558 1561 1563 1564 1566 1568 1570 1572 1574 1576 1578 1579 1581 1582 1584 1585 1586 1587
1518 1519 1521 1519 1524 1523 1521 1518 1515 1512 1511 1510 1510 1511 1513 1513 1513 1515 1518 1521 1527 1530 1532 1536 1541 1545 1548 1551 1553 1555 1558 1559 1561 1563 1565 1567 1569 1571 1573 1575 1578 1579 1581 1582 1583 1585 1586 1588 1589
1517 1518 1521 1525 1526 1523 1522 1521 1519 1514 1513 1511 1511 1511 1512 1512 1514 1517 1519 1524 1527 1531 1534 1537 1540 1544 1548 1551 1554 1556 1558 1560 1562 1564 1566 1568 1570 1573 1574 1576 1579 1581 1582 1584 1586 1587 1589 1590 1592
1517 1519 1524 1526 1525 1522 1522 1522 1520 1518 1515 1513 1512 1512 1514 1514 1516 1518 1521 1525 1529 1532 1535 1538 1541 1544 1547 1551 1554 1556 1558 1561 1563 1565 1567 1569 1571 1573 1576 1578 1580 1582 1583 1585 1586 1588 1590 1591 1592
1516 1518 1526 1531 1526 1522 1523 1522 1520 1519 1516 1515 1514 1514 1515 1515 1516 1519 1522 1525 1529 1534 1536 1538 1541 1544 1547 1550 1553 1556 1558 1561 1563 1566 1568 1570 1572 1574 1576 1579 1581 1583 1584 1586 1588 1589 1590 1592 1593
1517 1520 1528 1530 1529 1526 1526 1523 1521 1520 1517 1516 1515 1515 1515 1515 1516 1519 1522 1525 1529 1533 1536 1538 1540 1543 1546 1549 1553 1555 1558 1561 1563 1566 1569 1571 1573 1575 1577 1579 1581 1583 1585 1586 1588 1590 1591 1592 1593
1518 1522 1529 1529 1530 1527 1526 1525 1523 1520 1519 1517 1517 1518 1518 1517 1517 1517 1521 1524 1527 1530 1534 1537 1540 1542 1546 1549 1551 1555 1557 1560 1563 1566 1568 1570 1573 1575 1577 1579 1581 1583 1585 1586 1588 1589 1591 1592 1593
1520 1524 1529 1532 1532 1531 1527 1527 1524 1523 1520 1518 1520 1518 1518 1518 1517 1515 1514 1520 1523 1527 1531 1535 1539 1541 1545 1548 1550 1553 1556 1558 1561 1564 1567 1569 1572 1574 1576 1578 1580 1582 1584 1586 1588 1589 1591 1592 1593
1524 1527 1532 1534 1532 1531 1527 1524 1524 1523 1522 1523 1521 1519 1517 1516 1515 1515 1515 1515 1520 1525 1529 1533 1536 1540 1543 1546 1548 1551 1553 1556 1558 1562 1565 1568 1570 1572 1575 1577 1578 1580 1582 1584 1586 1587 1589 1590 1591
1526 1533 1533 1533 1532 1531 1530 1527 1525 1526 1530 1526 1523 1519 1516 1513 1514 1514 1516 1516 1518 1522 1526 1530 1535 1538 1541 1544 1547 1549 1550 1552 1555 1558 1561 1564 1567 1569 1572 1574 1576 1578 1580 1582 1584 1585 1587 1588 1590
1527 1532 1532 1532 1531 1532 1529 1526 1525 1529 1527 1525 1520 1516 1515 1516 1515 1515 1516 1518 1520 1521 1524 1528 1532 1536 1540 1542 1545 1547 1548 1550 1553 1555 1558 1561 1563 1566 1569 1572 1574 1576 1578 1580 1581 1583 1585 1586 1587
1530 1531 1532 1531 1528 1529 1530 1523 1523 1526 1524 1520 1521 1519 1518 1517 1515 1515 1515 1516 1517 1520 1524 1527 1530 1533 1537 1539 1542 1544 1547 1548 1551 1553 1555 1557 1560 1563 1566 1569 1571 1573 1576 1577 1579 1581 1582 1583 1584
1529 1529 1533 1532 1530 1529 1526 1523 1528 1532 1526 1521 1516 1519 1517 1515 1514 1512 1513 1514 1515 1518 1522 1525 1528 1531 1533 1535 1539 1541 1543 1546 1548 1549 1552 1554 1556 1559 1562 1565 1568 1570 1573 1575 1576 1578 1579 1580 1581
1533 1533 1536 1536 1534 1532 1529 1529 1532 1531 1528 1523 1519 1513 1514 1512 1512 1511 1509 1509 1511 1515 1516 1520 1524 1526 1529 1531 1533 1536 1538 1541 1544 1546 1548 1551 1553 1556 1558 1561 1563 1566 1569 1571 1572 1574 1575 1576 1577
1542 1541 1548 1542 1542 1542 1541 1544 1539 1532 1530 1525 1520 1515 1509 1509 1509 1510 1508 1507 1507 1509 1513 1515 1516 1518 1522 1525 1528 1530 1533 1535 1538 1540 1543 1546 1549 1551 1553 1556 1558 1561 1564 1565 1567 1568 1570 1571 1572
1548 1549 1549 1549 1541 1542 1544 1548 1542 1532 1527 1524 1521 1516 1511 1509 1509 1508 1507 1505 1504 1503 1505 1510 1512 1513 1514 1518 1521 1524 1526 1528 1531 1534 1537 1540 1542 1545 1548 1550 1552 1555 1557 1559 1561 1562 1564 1566 1567
1548 1549 1550 1545 1543 1543 1547 1545 1538 1534 1529 1526 1520 1518 1515 1511 1508 1505 1503 1502 1500 1499 1499 1501 1503 1505 1508 1509 1509 1512 1515 1519 1523 1527 1530 1534 1537 1539 1542 1544 1546 1549 1550 1553 1555 1557 1559 1560 1561
1547 1548 1547 1545 1544 1543 1544 1542 1537 1535 1536 1533 1528 1522 1518 1512 1507 1503 1500 1498 1496 1495 1494 1494 1493 1496 1498 1500 1503 1506 1509 1512 1517 1520 1523 1527 1530 1532 1534 1536 1538 1541 1543 1545 1547 1550 1552 1553 1555
1548 1548 1548 1551 1543 1543 1541 1542 1544 1540 1538 1534 1531 1529 1522 1520 1513 1507 1501 1498 1494 1491 1488 1489 1487 1489 1489 1493 1496 1498 1502 1505 1506 1508 1512 1516 1520 1523 1525 1528 1531 1533 1536 1537 1540 1543 1544 1546 1547
1546 1547 1549 1548 1544 1542 1544 1549 1549 1545 1541 1539 1539 1534 1530 1524 1519 1512 1505 1499 1495 1490 1486 1482 1481 1481 1482 1485 1486 1487 1489 1490 1492 1498 1504 1508 1512 1513 1517 1521 1524 1525 1528 1529 1531 1535 1537 1540 1540
1548 1547 1548 1546 1545 1547 1547 1545 1556 1548 1545 1545 1545 1540 1536 1532 1526 1519 1513 1509 1502 1493 1485 1479 1474 1472 1474 1475 1478 1479 1480 1483 1488 1489 1493 1497 1503 1505 1508 1512 1515 1516 1518 1521 1523 1525 1528 1530 1533
1546 1545 1547 1548 1546 1541 1552 1545 1557 1557 1555 1548 1546 1543 1539 1536 1529 1523 1519 1512 1504 1497 1488 1478 1469 1466 1467 1466 1467 1470 1472 1476 1479 1480 1480 1484 1490 1493 1496 1501 1503 1506 1508 1509 1513 1516 1518 1521 1523
1545 1544 1543 1545 1543 1548 1550 1549 1562 1558 1554 1552 1547 1545 1542 1538 1533 1525 1519 1511 1506 1499 1497 1484 1472 1462 1458 1459 1460 1462 1466 1471 1473 1474 1476 1478 1479 1482 1485 1489 1492 1495 1497 1501 1504 1506 1509 1511 1514
1551 1551 1548 1553 1552 1552 1549 1552 1557 1556 1553 1551 1548 1547 1544 1538 1533 1527 1523 1519 1514 1508 1500 1490 1477 1467 1460 1456 1460 1460 1463 1465 1467 1469 1469 1470 1471 1473 1478 1481 1484 1488 1491 1493 1496 1498 1501 1503 1505
1552 1551 1554 1556 1560 1560 1550 1554 1555 1552 1551 1550 1549 1546 1542 1536 1532 1528 1522 1520 1516 1508 1502 1494 1484 1478 1471 1463 1455 1457 1460 1460 1460 1461 1462 1462 1463 1465 1467 1470 1475 1480 1483 1485 1487 1489 1493 1497 1499
1552 1555 1555 1556 1556 1555 1551 1557 1552 1553 1553 1550 1548 1546 1543 1539 1535 1529 1524 1525 1514 1513 1506 1498 1492 1484 1481 1473 1461 1455 1453 1453 1455 1455 1454 1455 1456 1458 1459 1459 1463 1466 1470 1474 1477 1481 1484 1487 1488
1555 1556 1557 1557 1560 1556 1555 1547 1553 1554 1555 1552 1549 1548 1546 1543 1539 1535 1531 1526 1513 1513 1506 1501 1494 1490 1483 1476 1471 1463 1457 1452 1449 1447 1447 1448 1449 1450 1450 1450 1452 1454 1459 1464 1467 1471 1476 1477 1479
1560 1561 1561 1552 1562 1562 1562 1550 1553 1554 1554 1552 1550 1549 1546 1543 1539 1535 1529 1523 1516 1514 1513 1496 1497 1494 1489 1482 1474 1467 1462 1460 1454 1444 1443 1440 1440 1442 1441 1442 1442 1445 1448 1453 1457 1463 1471 1473 1471
Wind_Speed
10 12 10 3 1 1 4 4 3 4 2 3 12 5 5 3 3 2 7 31 33 34 31 27 24 21 18 16 20 23 23 21 19 18 16 16 17 19 19 19 19 16 15 15 17 18 19 20 20
8 9 4 2 0 4 3 6 11 6 1 10 10 4 4 2 4 1 22 31 36 34 32 29 25 22 20 15 18 21 22 21 19 19 18 18 19 18 19 18 18 18 18 18 18 19 19 19 20
6 6 2 2 2 3 3 8 10 3 1 2 5 2 1 2 3 9 23 29 39 34 32 29 26 22 20 16 17 19 21 21 20 19 18 18 18 18 19 19 19 20 21 21 20 20 20 19 19
2 1 4 0 3 2 2 5 13 4 4 3 4 4 2 1 1 18 28 31 37 34 32 30 28 24 20 17 17 17 20 20 20 19 18 18 19 19 19 19 19 20 20 21 22 22 21 20 19
1 1 1 2 1 2 2 3 6 8 6 4 0 3 2 2 13 18 25 32 36 34 32 31 29 25 22 18 17 18 20 20 20 19 18 18 19 18 18 19 19 18 18 18 18 18 19 18 16
2 3 1 1 1 3 3 9 4 9 7 2 3 2 1 10 9 21 25 30 34 33 33 31 29 27 24 20 18 18 20 21 20 18 18 18 19 18 18 18 18 18 18 18 19 18 17 16 16
4 2 2 2 2 1 4 17 6 9 7 5 5 4 2 13 12 23 25 29 34 33 33 32 31 29 25 22 20 19 20 21 20 18 18 18 19 19 18 18 18 18 18 18 17 16 15 14 14
3 3 3 1 1 2 10 13 8 11 4 10 4 3 2 17 16 21 25 29 33 33 33 33 33 32 29 25 22 21 20 21 21 20 18 18 18 18 18 18 18 18 18 17 16 15 14 13 14
3 3 1 2 1 5 14 11 8 17 8 11 2 8 10 11 18 23 27 32 34 34 35 35 35 34 31 28 26 23 22 22 23 22 20 20 20 20 19 19 19 19 18 18 17 15 14 13 12
3 2 3 7 6 6 11 12 12 9 17 2 11 15 17 7 22 28 32 35 36 36 36 36 36 35 33 31 29 27 26 26 26 26 24 23 22 22 21 20 20 19 19 18 18 17 15 15 13
3 3 1 5 4 8 11 13 13 9 5 9 19 28 26 17 22 31 33 35 37 36 37 38 38 37 35 35 33 31 30 29 29 28 26 24 23 23 24 23 23 22 22 21 21 20 19 17 16
5 6 5 2 8 10 11 13 11 6 15 23 25 26 22 18 18 30 33 36 37 38 37 38 39 38 37 36 35 34 33 32 32 31 29 28 27 26 26 25 25 25 24 23 22 21 20 19 19
4 3 5 11 13 15 13 9 4 13 25 23 25 26 24 19 18 22 31 35 36 38 37 38 38 38 39 38 37 36 35 34 33 32 31 30 29 28 27 27 26 26 25 24 23 22 21 21 20
0 3 6 9 21 6 16 6 1 14 34 31 28 29 27 24 19 18 26 36 39 38 38 37 39 40 40 40 40 39 37 36 35 34 33 32 31 29 28 27 26 26 25 25 24 23 22 22 22
2 3 2 17 20 10 22 5 6 24 35 36 35 26 29 28 24 20 23 32 40 39 37 38 38 41 42 42 41 41 40 38 36 36 35 34 32 31 29 28 28 26 25 24 25 24 24 23 23
6 5 6 6 20 11 13 0 14 36 35 33 32 34 28 30 27 21 19 24 34 39 40 39 40 42 43 44 42 42 42 41 39 37 36 35 35 33 32 31 29 27 26 27 27 26 26 26 25
10 4 6 10 11 11 14 6 26 32 28 27 27 27 29 27 26 24 21 18 26 33 39 41 42 44 45 45 44 44 44 43 41 41 38 36 36 35 35 33 31 29 29 29 28 28 28 28 27
3 3 3 5 8 12 10 14 19 24 22 22 22 24 26 27 26 23 20 20 18 23 31 39 42 46 47 46 45 46 46 46 45 43 41 40 39 37 37 36 34 32 32 32 32 31 30 30 28
6 3 2 3 6 12 14 15 13 23 25 32 33 30 30 31 29 24 21 20 18 23 29 32 41 44 49 52 51 50 51 49 48 47 44 42 42 40 39 38 37 36 36 35 33 32 32 31 30
3 2 5 6 6 6 12 9 21 27 29 32 34 34 33 33 32 31 25 19 21 16 27 32 36 42 49 51 54 54 52 51 50 49 48 46 45 44 43 42 40 39 38 37 37 36 35 34 34
2 3 3 4 11 4 5 8 21 23 35 39 42 39 40 37 37 38 36 31 25 19 13 29 37 42 46 49 53 56 54 52 52 54 52 51 49 49 48 46 44 43 42 41 40 39 39 38 38
2 1 3 7 6 5 7 4 18 19 22 32 38 39 40 41 39 45 46 46 40 32 20 18 29 40 42 47 53 57 58 58 57 57 54 54 53 54 52 50 49 48 46 46 45 43 42 41 41
2 6 5 3 0 1 11 3 9 18 20 21 30 36 37 35 37 40 46 45 38 48 37 23 18 32 42 45 49 53 57 59 56 57 57 57 55 56 55 53 52 52 51 49 48 47 46 45 43
9 1 3 2 1 5 6 1 8 9 13 17 24 25 28 32 33 37 39 45 55 49 57 42 25 14 33 44 46 49 53 55 58 59 58 58 57 58 59 57 57 56 55 54 51 49 48 46 45
7 3 2 2 3 2 5 5 3 8 7 13 19 27 24 26 29 34 41 45 53 54 53 59 50 27 13 35 46 47 48 51 53 55 57 54 55 57 59 59 59 59 59 57 55 53 51 49 46
4 2 2 3 1 3 3 3 3 5 11 11 18 19 21 22 28 30 34 40 44 46 49 52 57 58 30 8 31 42 42 44 48 50 51 52 54 56 53 54 54 58 59 59 57 55 53 51 48
2 4 3 3 2 2 1 2 9 10 12 14 16 17 24 27 27 29 32 34 45 46 48 47 49 50 52 41 6 12 30 37 41 43 44 48 50 51 51 50 46 43 46 55 56 56 54 50 48
3 1 2 2 3 2 2 2 1 9 11 10 15 19 22 25 28 33 32 30 36 44 43 46 46 46 43 45 46 28 5 17 32 35 37 41 44 46 45 46 44 43 37 36 40 45 48 49 48
2 2 3 2 1 1 2 2 2 3 5 7 10 14 17 20 23 25 27 31 36 37 42 45 43 44 44 42 38 42 42 36 8 13 20 34 38 41 41 42 41 40 36 30 29 29 33 35 35
2 3 2 2 3 1 1 3 5 3 5 7 8 11 14 18 21 24 28 36 36 36 36 42 44 40 40 41 40 36 33 37 38 33 24 15 5 21 33 36 38 38 35 31 21 15 24 26 28
Wind_Direction
332 337 340 350 267 2 63 28 289 288 199 185 144 158 200 148 178 318 172 171 173 170 169 163 161 158 156 161 160 160 160 159 158 155 151 147 143 143 145 147 150 149 142 136 132 128 124 121 119
326 332 341 360 57 127 79 337 354 320 345 133 128 149 155 213 215 262 154 166 173 172 171 168 166 165 161 168 165 163 163 162 161 156 153 148 146 146 147 149 148 145 141 135 131 126 123 119 117
319 331 325 73 95 97 93 3 336 350 349 221 140 173 95 353 266 166 161 166 172 176 173 173 169 172 167 174 170 167 165 163 159 157 154 150 148 147 149 151 151 147 142 138 134 131 127 125 123
311 294 42 70 97 107 89 355 360 341 271 314 136 109 87 217 165 161 163 167 174 178 177 176 172 176 175 180 176 173 169 165 161 159 154 153 153 152 150 151 152 148 145 143 141 139 136 135 132
245 75 67 56 135 214 252 319 331 5 331 327 249 155 109 154 160 169 166 170 177 181 181 179 175 178 180 184 184 179 175 172 167 163 159 158 157 157 155 155 154 151 146 143 140 139 137 134 126
102 89 102 205 236 281 303 335 342 17 3 336 307 118 86 155 176 172 172 175 181 184 184 182 179 181 183 187 190 185 182 178 174 168 166 163 162 161 160 159 158 155 152 151 147 145 143 142 140
107 96 119 151 296 350 28 348 28 344 343 3 293 169 151 171 177 177 178 179 182 189 189 186 183 184 187 189 193 191 187 184 180 175 172 171 168 167 166 166 163 162 161 159 156 154 150 145 149
99 91 127 131 355 69 2 348 350 4 359 352 355 346 49 191 180 187 183 184 185 192 194 191 187 187 188 190 194 194 191 189 186 183 181 178 176 174 174 174 173 171 170 170 169 167 163 157 158
109 88 110 61 75 341 347 3 354 340 334 331 83 20 338 212 196 192 193 188 191 195 197 195 192 190 191 192 193 195 194 193 192 190 187 185 182 181 182 182 181 180 179 180 182 182 180 178 174
67 105 107 39 42 339 327 345 331 342 333 11 15 343 350 285 211 205 197 197 196 198 199 198 196 194 194 194 195 196 195 194 196 196 193 192 190 188 188 187 188 187 189 189 193 195 197 197 195
28 86 27 45 348 335 322 325 329 330 16 339 332 327 315 298 232 213 208 205 202 200 201 200 200 198 197 198 198 198 198 198 198 200 200 197 195 194 193 192 193 194 195 197 199 203 207 209 211
112 59 24 346 332 351 336 313 315 342 344 328 328 330 324 300 259 227 214 209 207 205 204 204 203 202 201 203 203 204 202 201 201 201 202 202 201 200 200 200 200 200 202 204 206 210 214 217 221
66 8 14 24 20 41 9 311 279 22 356 1 12 16 3 331 284 244 224 217 214 213 210 207 206 206 207 207 208 208 208 207 206 206 205 206 207 207 207 207 207 208 208 210 213 215 218 222 227
339 332 28 9 8 62 355 287 210 4 353 348 360 358 360 360 321 281 245 229 222 218 218 214 211 210 212 213 213 213 214 214 212 212 211 210 210 212 213 214 214 214 216 216 218 220 224 227 231
74 93 95 24 355 28 341 72 84 355 348 347 343 348 343 347 352 310 286 249 233 228 225 223 218 217 216 219 219 218 218 219 218 218 216 215 214 214 215 217 219 220 220 222 223 224 226 228 232
28 60 358 2 0 7 10 220 345 349 345 338 335 333 334 333 335 343 318 280 253 237 234 230 227 225 225 224 223 224 224 223 223 222 222 220 219 218 218 219 221 221 222 225 226 227 231 232 235
21 69 8 326 6 359 20 337 337 333 337 334 335 332 331 337 329 336 336 311 276 257 246 238 233 232 231 231 231 228 228 228 227 226 224 223 224 222 221 222 223 223 223 226 229 231 233 236 237
71 61 328 309 346 355 9 346 334 342 340 332 334 332 335 335 338 338 334 330 300 276 261 251 246 238 235 235 236 236 233 231 231 230 229 226 226 226 225 226 225 224 227 228 229 231 234 239 243
118 103 331 292 335 353 7 360 7 350 359 354 349 346 345 340 338 340 327 333 334 288 271 260 251 247 240 236 234 234 237 235 232 233 231 230 230 229 229 229 230 227 228 231 234 237 239 241 244
113 100 22 291 322 2 2 54 24 25 25 23 18 14 9 3 0 1 353 342 332 317 280 271 263 252 246 242 242 239 239 239 240 238 235 234 233 233 233 233 233 232 233 233 235 235 239 242 244
68 51 11 333 318 107 26 51 26 23 32 29 26 23 24 21 14 11 9 6 356 340 306 275 274 265 256 249 244 241 239 239 240 240 239 236 235 236 235 235 236 237 237 238 239 240 240 243 247
69 261 332 321 344 29 354 78 29 19 23 19 16 15 16 17 21 23 21 17 11 360 345 283 259 267 268 258 247 244 242 240 242 242 241 241 240 238 238 238 239 240 240 240 242 243 244 245 249
250 295 294 274 226 167 47 72 18 15 6 2 5 15 17 19 23 23 23 21 15 22 14 359 277 252 258 260 256 252 247 245 247 247 246 243 244 244 242 240 242 241 243 244 244 246 245 246 246
309 50 87 69 75 50 23 353 44 20 355 344 359 2 9 8 13 15 14 16 17 19 22 18 4 291 247 254 257 253 253 250 246 247 249 250 245 245 245 244 242 243 244 245 245 246 248 248 249
18 53 99 75 49 53 6 75 121 4 354 8 8 3 2 6 7 11 10 12 19 18 14 25 24 12 308 245 252 256 258 257 254 251 252 251 253 250 248 246 245 244 244 246 248 248 248 249 248
359 12 82 121 35 325 340 104 117 13 4 2 13 13 356 4 7 9 11 10 12 15 13 16 26 27 14 342 253 258 261 258 260 258 255 255 256 260 260 259 254 249 249 250 250 252 252 250 251
25 61 351 92 52 274 14 77 257 5 5 13 9 5 4 8 6 5 10 12 13 13 14 12 17 23 28 29 10 250 257 263 261 263 263 263 262 263 264 263 264 265 261 255 253 253 253 256 259
51 47 131 83 166 232 189 207 222 359 359 5 16 11 8 11 12 15 13 4 11 9 8 16 16 20 20 28 29 31 346 252 259 268 270 267 267 266 265 267 266 261 259 262 259 260 260 260 260
56 72 83 106 8 193 293 189 114 33 18 26 15 15 16 14 14 15 11 9 12 360 3 7 10 11 15 19 23 26 28 32 22 247 255 262 268 269 267 266 265 260 252 252 250 254 256 257 259
94 96 67 226 166 172 234 256 104 92 58 37 24 10 9 9 8 7 6 8 10 7 355 360 1 358 358 6 11 14 15 18 24 29 32 37 346 260 261 260 259 253 241 233 227 261 266 265 267